Location: Unspecified
(0.0000°N, 0.0000°E)
Time: 00:31:20
(UTC+00:00)

STARLINK-1042 - Pass Details

Date: 22 January 2020
Orbit: 549 x 550 km, 53.0° (Epoch: 13 August)

Event Time Altitude Azimuth Distance (km) Brightness Sun altitude
Exits shadow 03:24:35 - 157° (SSE) 2,328 7.3 -38.7°
Enters shadow 04:51:06 -24° 217° (SW) 6,423 9.0 -18.8°
Maximum altitude 05:07:01 55° 304° (NW) 679 3.7 -15.1°
